Baton Rouge, LA

8:20 PM CST on January 16, 2018 (GMT -0600)
Baton Rouge Metro-Ryan

Weather History for KBTR - January, 2013

Change the Weather History Date:

Saturday, January 12, 2013

  Actual Average Record
Temperature  
Mean Temperature 73 °F 52 °F  
Max Temperature 78 °F 62 °F 82 °F (2017)
Min Temperature 68 °F 41 °F 11 °F (1962)
Degree Days  
Heating Degree Days 0 14  
Month to date heating degree days 130 168  
Since 1 July heating degree days 707 784  
Cooling Degree Days 8 0  
Month to date cooling degree days 11 3  
Year to date cooling degree days 11 3  
Growing Degree Days 23 (Base 50)    
Moisture  
Dew Point 68 °F    
Average Humidity 80    
Maximum Humidity 100    
Minimum Humidity 60    
Precipitation  
Precipitation 0.00 in 0.18 in 4.41 in (1998)
Month to date precipitation 10.36 2.14  
Year to date precipitation 10.36 2.14  
Snow  
Snow 0.00 in - - ()
Month to date snowfall 0.0  
Since 1 July snowfall 0.0  
Snow Depth 0.00 in    
Sea Level Pressure  
Sea Level Pressure 29.96 in    
Wind  
Wind Speed 12 mph (SSE)    
Max Wind Speed 25 mph    
Max Gust Speed 32 mph    
Visibility 9 miles    
Events      
T = Trace of Precipitation, MM = Missing Value Source: NWS Daily Summary

Daily Weather History Graph

Daily Weather History Graph

Search for Another Location

Airport or City:

Trip Planner

Search our weather history database for the weather conditions in past years. The results will help you decide how hot, cold, wet, or windy it might be!

Date:

Astronomy

Jan. 12, 2013 Rise Set
Actual Time 7:02 AM CST 5:23 PM CST
Civil Twilight 6:36 AM CST 5:49 PM CST
Nautical Twilight 6:06 AM CST 6:19 PM CST
Astronomical Twilight 5:37 AM CST 6:48 PM CST
Moon 7:28 AM CST (1/12) 6:44 PM CST (1/12)
Length of Visible Light 11h 13m
Length of Day
10h 21m
New Moon, 1% of the Moon is Illuminated
Jan 12
New Moon
Jan 18
First Quarter
Jan 26
Full
Feb 3
Last Quarter
Feb 10
New

Hourly Weather History & Observations

Time (CST) Temp. Dew Point Humidity Pressure Visibility Wind Dir Wind Speed Gust Speed Precip Events Conditions
12:53 AM 71.1 °F 70.0 °F 96% 30.00 in 4.0 mi South 11.5 mph - N/A   Overcast
1:53 AM 71.1 °F 70.0 °F 96% 30.01 in 6.0 mi SSE 9.2 mph - N/A   Overcast
2:53 AM 70.0 °F 70.0 °F 100% 30.00 in 7.0 mi SE 5.8 mph - N/A   Overcast
3:38 AM 69.8 °F 69.8 °F 100% 30.00 in 8.0 mi SSE 6.9 mph - N/A   Overcast
3:53 AM 70.0 °F 69.1 °F 97% 30.00 in 8.0 mi SSE 6.9 mph - N/A   Overcast
4:03 AM 69.8 °F 69.8 °F 100% 29.99 in 8.0 mi SSE 6.9 mph - N/A   Overcast
4:27 AM 69.8 °F 69.8 °F 100% 29.98 in 8.0 mi SE 6.9 mph - N/A   Overcast
4:42 AM 69.8 °F 69.8 °F 100% 29.98 in 7.0 mi SE 9.2 mph - N/A   Overcast
4:53 AM 69.1 °F 68.0 °F 96% 29.98 in 7.0 mi SE 10.4 mph - N/A   Overcast
5:25 AM 69.8 °F 68.0 °F 94% 29.98 in 8.0 mi SE 8.1 mph - N/A   Mostly Cloudy
5:53 AM 69.8 °F 68.0 °F 94% 29.99 in 7.0 mi SE 8.1 mph - N/A   Mostly Cloudy
6:53 AM 69.1 °F 68.0 °F 96% 30.01 in 7.0 mi SSE 6.9 mph - N/A   Mostly Cloudy
7:00 AM 69.8 °F 68.0 °F 94% 30.01 in 7.0 mi SSE 5.8 mph - N/A   Overcast
7:53 AM 69.1 °F 68.0 °F 96% 30.02 in 6.0 mi SE 6.9 mph - N/A   Overcast
8:53 AM 70.0 °F 68.0 °F 93% 30.01 in 7.0 mi SE 9.2 mph - N/A   Overcast
9:00 AM 71.6 °F 69.8 °F 94% 30.02 in 8.0 mi SE 11.5 mph - N/A   Overcast
9:53 AM 72.0 °F 69.1 °F 91% 30.04 in 9.0 mi SE 11.5 mph - N/A   Mostly Cloudy
10:53 AM 73.9 °F 68.0 °F 82% 30.01 in 10.0 mi South 11.5 mph 17.3 mph N/A   Mostly Cloudy
11:00 AM 75.2 °F 68.0 °F 78% 30.01 in 10.0 mi SSE 6.9 mph 17.3 mph N/A   Mostly Cloudy
11:10 AM 75.2 °F 68.0 °F 78% 30.00 in 10.0 mi SSE 12.7 mph 17.3 mph N/A   Scattered Clouds
11:53 AM 77.0 °F 68.0 °F 74% 29.98 in 10.0 mi South 12.7 mph - N/A   Partly Cloudy
12:53 PM 75.9 °F 64.0 °F 67% 29.94 in 10.0 mi SSE 17.3 mph 27.6 mph N/A   Scattered Clouds
1:53 PM 75.9 °F 64.9 °F 69% 29.93 in 10.0 mi South 23.0 mph 26.5 mph N/A   Partly Cloudy
2:53 PM 77.0 °F 63.0 °F 62% 29.91 in 10.0 mi South 21.9 mph 29.9 mph N/A   Partly Cloudy
3:53 PM 75.0 °F 64.0 °F 69% 29.92 in 10.0 mi South 16.1 mph 23.0 mph N/A   Partly Cloudy
4:53 PM 73.9 °F 66.0 °F 76% 29.92 in 10.0 mi SSE 13.8 mph - N/A   Mostly Cloudy
5:53 PM 73.0 °F 66.9 °F 81% 29.90 in 10.0 mi South 8.1 mph - N/A   Mostly Cloudy
6:01 PM 73.4 °F 66.2 °F 78% 29.91 in 10.0 mi SSE 8.1 mph - N/A   Mostly Cloudy
6:53 PM 73.4 °F 66.2 °F 78% 29.91 in 10.0 mi SSE 12.7 mph - N/A   Overcast
7:50 PM 71.6 °F 66.2 °F 83% 29.91 in 10.0 mi SSE 8.1 mph - N/A   Overcast
7:53 PM 72.0 °F 66.9 °F 84% 29.91 in 10.0 mi SSE 10.4 mph - N/A   Overcast
8:53 PM 72.0 °F 68.0 °F 87% 29.90 in 10.0 mi SE 13.8 mph - N/A   Overcast
9:44 PM 71.6 °F 68.0 °F 88% 29.89 in 10.0 mi SSE 11.5 mph 21.9 mph N/A   Overcast
9:53 PM 71.1 °F 68.0 °F 90% 29.89 in 10.0 mi SSE 12.7 mph 19.6 mph N/A   Overcast
10:13 PM 71.6 °F 68.0 °F 88% 29.89 in 10.0 mi SSE 12.7 mph 19.6 mph N/A   Overcast
10:53 PM 72.0 °F 68.0 °F 87% 29.91 in 10.0 mi South 11.5 mph 18.4 mph N/A   Overcast
11:53 PM 71.1 °F 68.0 °F 90% 29.90 in 10.0 mi SSE 9.2 mph - N/A   Overcast